Lapse_Rate
6.9 6.7 6.6 6.5 6.4 6.5 6.8 6.5 6.5 6.6 6.6 6.3 6.4 6.5 5.9 6.1 6.4 6.5 5.9 5.7 5.0 4.7
6.8 6.7 6.6 6.4 6.4 6.5 6.5 6.4 6.3 6.5 6.5 6.2 6.1 6.1 6.5 6.0 6.0 6.0 5.6 5.2 4.8 5.0
6.6 6.4 6.3 6.3 6.6 6.5 6.3 6.2 6.2 6.1 6.2 6.2 6.3 6.3 6.2 5.7 5.9 5.8 5.1 5.1 5.1 5.2
6.6 6.4 6.3 6.0 6.1 6.3 6.2 6.2 6.0 6.0 6.0 6.3 6.0 5.9 5.9 5.9 5.9 5.6 5.1 5.1 5.2 5.1
6.3 6.2 6.2 6.2 6.4 6.5 6.5 6.2 6.1 5.8 5.9 6.1 5.9 5.8 5.8 5.8 5.4 5.4 5.0 5.3 5.2 4.9
6.3 6.2 6.5 6.2 6.3 6.2 5.8 6.1 6.0 5.9 6.0 6.1 6.1 6.2 6.0 5.5 5.3 5.3 5.4 5.2 4.6 4.9
6.3 6.2 6.5 6.2 6.1 5.9 6.3 6.1 6.3 6.4 6.4 6.5 6.0 5.5 5.7 5.7 5.4 5.2 5.3 4.9 5.2 5.4
6.4 6.2 6.1 6.0 6.1 6.3 6.3 6.3 6.8 6.3 6.3 5.9 5.6 5.7 5.7 5.6 5.4 5.2 5.2 5.2 5.6 5.9
6.2 6.1 6.1 6.1 6.1 6.0 6.5 6.7 6.5 6.2 5.8 5.6 6.0 5.7 5.6 5.6 5.3 5.2 5.4 5.8 5.9 6.3
6.1 6.2 6.1 5.8 6.0 5.9 6.6 6.4 6.1 5.7 5.6 5.8 5.9 5.7 5.4 5.2 5.3 5.6 5.9 6.1 6.5 6.8
5.9 5.8 5.7 5.9 6.2 6.5 6.5 5.5 5.7 5.5 5.7 5.5 5.6 5.3 5.2 5.4 5.7 5.8 6.1 6.5 6.9 7.2
5.3 5.6 5.8 5.7 6.3 6.3 5.8 5.8 5.6 5.6 5.5 5.5 5.5 5.3 5.6 5.8 5.8 6.0 6.3 6.9 7.3 7.3
5.2 5.7 5.8 5.4 5.8 5.7 5.6 5.4 5.4 5.4 5.4 5.5 5.5 5.6 5.7 5.8 5.8 6.2 6.6 7.2 7.4 7.3
4.9 5.0 5.3 5.6 5.6 5.4 5.4 5.4 5.4 5.5 5.6 5.6 5.7 5.8 5.9 6.0 6.2 6.6 7.0 7.4 7.3 7.1
Wind_Speed
11 8 7 8 7 7 7 7 13 12 12 12 14 14 10 5 4 5 4 6 4 3
9 10 9 10 8 7 6 7 14 16 15 15 13 10 7 3 4 4 4 5 5 4
9 9 10 10 12 13 12 15 13 11 8 9 11 10 8 4 3 5 4 4 5 5
7 9 10 11 12 15 12 8 7 5 6 4 4 3 4 4 5 7 6 5 6 6
8 9 8 6 5 7 7 9 6 5 6 6 5 5 6 6 6 7 7 7 6 6
7 8 6 6 7 9 9 8 6 6 4 5 5 5 6 7 7 7 7 6 7 7
5 6 7 8 8 9 7 8 4 4 4 3 1 5 6 6 6 6 7 7 7 7
6 7 7 9 9 8 8 6 7 8 6 1 4 3 6 7 7 7 6 6 7 6
7 8 8 9 10 10 8 9 7 4 4 3 3 13 15 9 6 6 7 8 6 5
10 10 9 9 9 8 5 4 3 4 4 7 7 9 10 10 5 6 6 7 6 5
11 11 10 8 6 4 2 2 3 5 6 5 5 9 9 7 5 5 6 6 6 5
11 10 7 6 3 3 3 4 4 4 5 6 6 7 9 6 4 5 6 5 6 7
7 5 3 1 2 2 2 4 4 5 5 7 7 10 11 8 3 4 5 5 7 14
4 3 1 1 1 2 3 4 5 5 6 6 6 7 12 11 4 5 5 5 5 6
Wind_Direction
187 192 197 183 174 187 174 156 157 152 146 147 149 180 170 169 164 170 164 180 190 196
186 184 192 177 174 167 154 153 158 169 168 168 187 180 170 184 179 173 172 197 199 212
190 197 185 171 177 172 175 176 177 174 154 170 186 182 180 173 162 200 211 196 200 214
177 184 183 181 188 186 179 167 152 143 166 171 156 132 199 198 191 211 211 211 205 221
175 168 174 173 146 123 129 130 146 155 146 153 166 193 211 218 214 209 212 219 214 230
164 174 165 134 126 130 140 143 153 157 168 175 199 184 213 223 225 222 218 210 213 220
163 133 131 132 130 125 136 136 118 115 77 73 53 238 239 238 244 230 224 213 212 214
112 115 115 115 103 90 89 79 100 85 83 188 267 268 309 278 242 230 228 219 218 215
118 113 107 100 103 108 103 85 97 154 185 252 280 256 257 259 250 234 217 223 218 221
114 108 104 101 92 87 95 101 175 209 230 246 249 259 273 277 244 227 218 212 211 219
105 106 105 99 93 85 87 239 235 238 245 250 263 263 275 278 247 231 229 215 210 208
102 100 97 106 128 206 217 238 247 252 254 257 272 268 281 276 239 243 244 225 218 213
97 94 78 113 233 242 241 259 264 260 260 265 267 274 276 258 206 237 242 234 230 226
92 118 172 235 260 279 282 290 284 275 276 268 256 269 266 253 205 224 238 234 234 229